Tracking 27402 objects as of 3-Jun-2023
HD Live streaming from Space Station
objects crossing your sky now

FENGYUN 1C DEB

Track FENGYUN 1C DEB now!
10-day predictions


NORAD ID: 31001
Int'l Code: 1999-025BCT
Perigee: 661.6 km
Apogee: 887.4 km
Inclination: 99.3 °
Period: 100.2 minutes
Semi major axis: 7145 km
RCS: 0.0111 m2 (small)
Launch date: May 10, 1999
Source: People's Republic of China (PRC)
Launch site: Taiyaun Space Center, China (TSC)

Note: This is SATELLITE DEBRIS
Your satellite tracking list
Your tracking list is empty




NASA's NSSDC Master Catalog

Two Line Element Set (TLE):
1 31001U 99025BCT 23153.33489176  .00000813  00000-0  25265-3 0  9990
2 31001  99.2789 295.6127 0157967 337.0002  22.4161 14.37316171849015
Source of the keplerian elements: AFSPC